, AK

(GMT )
Kivalina

Weather History for PAVL - March, 2013

Change the Weather History Date:

Wednesday, March 6, 2013

  Actual Average Record
Temperature  
Mean Temperature 24 °F -  
Max Temperature 28 °F - - ()
Min Temperature 19 °F - - ()
Degree Days  
Heating Degree Days 42    
Moisture  
Dew Point 23 °F    
Average Humidity 93    
Maximum Humidity 100    
Minimum Humidity 86    
Precipitation  
Precipitation 0.00 in - - ()
Sea Level Pressure  
Sea Level Pressure 29.68 in    
Wind  
Wind Speed 18 mph (SE)    
Max Wind Speed 23 mph    
Max Gust Speed 31 mph    
Visibility 5 miles    
Events Snow    
T = Trace of Precipitation, MM = Missing Value Source: NWS Daily Summary

Daily Weather History Graph

Daily Weather History Graph

Search for Another Location

Airport or City:

Trip Planner

Search our weather history database for the weather conditions in past years. The results will help you decide how hot, cold, wet, or windy it might be!

Date:

Astronomy

Mar. 06, 2013 Rise Set
Actual Time 8:53 AM AKST 7:26 PM AKST
Civil Twilight 7:58 AM AKST 8:21 PM AKST
Nautical Twilight 6:54 AM AKST 9:26 PM AKST
Astronomical Twilight 5:45 AM AKST 10:36 PM AKST
Moon 7:34 AM AKST (3/6) 12:04 PM AKST (3/6)
Length of Visible Light 12h 22m
Length of Day
10h 33m
Waning Crescent, 28% of the Moon is Illuminated
Mar 6
Waning Crescent
Mar 11
New
Mar 19
First Quarter
Mar 27
Full
Apr 2
Last Quarter

Hourly Weather History & Observations

Time (AKST) Temp. Windchill Dew Point Humidity Pressure Visibility Wind Dir Wind Speed Gust Speed Precip Events Conditions
12:31 AM 28.4 °F 16.2 °F 26.6 °F 93% 29.73 in 2.5 mi ESE 17.3 mph - 0.00 in Snow Light Snow
12:53 AM 28.0 °F 16.1 °F 26.1 °F 92% 29.73 in 2.5 mi ESE 16.1 mph - 0.00 in Snow Light Snow
1:08 AM 28.4 °F 16.2 °F 26.6 °F 93% 29.72 in 3.0 mi ESE 17.3 mph - 0.00 in Snow Light Snow
1:53 AM 28.0 °F 15.7 °F 26.1 °F 92% 29.71 in 4.0 mi ESE 17.3 mph - 0.00 in Snow Light Snow
2:40 AM 26.6 °F 13.8 °F 26.6 °F 100% 29.70 in 4.0 mi ESE 17.3 mph - 0.00 in Snow Light Snow
3:53 AM 26.1 °F 11.6 °F 24.1 °F 92% 29.69 in 8.0 mi ESE 21.9 mph - 0.00 in   Overcast
4:53 AM 26.1 °F 12.0 °F 24.1 °F 92% 29.67 in 7.0 mi ESE 20.7 mph - N/A   Overcast
5:53 AM 26.1 °F 12.0 °F 24.1 °F 92% 29.66 in 5.0 mi ESE 20.7 mph - 0.00 in Snow Light Snow
6:43 AM 26.6 °F 13.1 °F 24.8 °F 93% 29.65 in 2.0 mi ESE 19.6 mph 25.3 mph 0.00 in Snow Light Snow
7:00 AM 26.6 °F 12.4 °F 26.6 °F 100% 29.65 in 1.5 mi ESE 21.9 mph 29.9 mph 0.00 in Snow Light Snow
7:18 AM 26.6 °F 12.7 °F 26.6 °F 100% 29.65 in 2.0 mi ESE 20.7 mph 28.8 mph 0.00 in Snow Light Snow
7:42 AM 26.6 °F 13.1 °F 26.6 °F 100% 29.64 in 3.0 mi ESE 19.6 mph 26.5 mph 0.00 in Snow Light Snow
7:53 AM 27.0 °F 13.9 °F 26.1 °F 96% 29.64 in 4.0 mi SE 18.4 mph 27.6 mph 0.00 in Snow Light Snow
8:37 AM 26.6 °F 12.7 °F 24.8 °F 93% 29.64 in 9.0 mi SE 20.7 mph 28.8 mph 0.00 in   Overcast
8:53 AM 27.0 °F 13.9 °F 24.1 °F 89% 29.64 in 5.0 mi SE 18.4 mph 27.6 mph 0.00 in Snow Light Snow
9:11 AM 26.6 °F 12.7 °F 24.8 °F 93% 29.64 in 1.8 mi ESE 20.7 mph - 0.00 in Snow Light Snow
9:53 AM 25.0 °F 10.9 °F 24.1 °F 96% 29.65 in 1.2 mi ESE 19.6 mph 29.9 mph 0.00 in Snow Light Snow
10:40 AM 24.8 °F 10.3 °F 24.8 °F 100% 29.65 in 0.8 mi ESE 20.7 mph 27.6 mph 0.00 in Snow Light Snow
10:53 AM 25.0 °F 10.6 °F 24.1 °F 96% 29.65 in 0.8 mi ESE 20.7 mph - 0.00 in Snow Light Snow
11:53 AM 25.0 °F 11.3 °F 23.0 °F 92% 29.66 in 0.8 mi SE 18.4 mph 27.6 mph 0.00 in Snow Light Snow
12:21 PM 24.8 °F 10.7 °F 23.0 °F 93% 29.66 in 1.0 mi SE 19.6 mph 28.8 mph 0.00 in Snow Light Snow
12:28 PM 24.8 °F 10.3 °F 24.8 °F 100% 29.66 in 1.2 mi SE 20.7 mph 27.6 mph 0.00 in Snow Light Snow
12:41 PM 24.8 °F 10.7 °F 23.0 °F 93% 29.66 in 2.5 mi SE 19.6 mph - 0.00 in   Overcast
12:48 PM 24.8 °F 10.7 °F 23.0 °F 93% 29.66 in 4.0 mi SE 19.6 mph - 0.00 in   Overcast
12:53 PM 25.0 °F 10.2 °F 23.0 °F 92% 29.66 in 4.0 mi SE 21.9 mph 27.6 mph 0.00 in   Overcast
1:08 PM 24.8 °F 10.0 °F 23.0 °F 93% 29.67 in 4.0 mi SE 21.9 mph 31.1 mph 0.00 in   Overcast
1:53 PM 25.0 °F 9.9 °F 23.0 °F 92% 29.68 in 6.0 mi SSE 23.0 mph - 0.00 in   Overcast
2:41 PM 24.8 °F 10.7 °F 23.0 °F 93% 29.68 in 1.8 mi SSE 19.6 mph 29.9 mph 0.00 in Snow Light Snow
2:53 PM 25.0 °F 10.6 °F 23.0 °F 92% 29.69 in 2.0 mi SSE 20.7 mph - 0.00 in Snow Light Snow
3:02 PM 24.8 °F 10.3 °F 23.0 °F 93% 29.69 in 6.0 mi SSE 20.7 mph - 0.00 in   Overcast
3:53 PM 25.0 °F 11.3 °F 21.9 °F 88% 29.70 in 10.0 mi SSE 18.4 mph - 0.00 in   Overcast
4:53 PM 25.0 °F 13.1 °F 21.9 °F 88% 29.71 in 10.0 mi SE 13.8 mph - N/A   Overcast
5:12 PM 24.8 °F 12.9 °F 21.2 °F 86% 29.71 in 10.0 mi SE 13.8 mph - N/A   Overcast
5:53 PM 23.0 °F 10.6 °F 19.9 °F 88% 29.72 in 10.0 mi SE 13.8 mph - N/A   Overcast
6:22 PM 23.0 °F 10.1 °F 21.2 °F 93% 29.72 in 10.0 mi SE 15.0 mph - N/A   Overcast
6:53 PM 21.9 °F 10.4 °F 19.0 °F 89% 29.72 in 10.0 mi SE 11.5 mph - N/A   Scattered Clouds
7:53 PM 21.0 °F 8.6 °F 19.0 °F 92% 29.73 in 10.0 mi SE 12.7 mph - N/A   Overcast
8:53 PM 21.0 °F 10.6 °F 18.0 °F 88% 29.74 in 10.0 mi SE 9.2 mph - N/A   Overcast
9:53 PM 19.9 °F 10.1 °F 18.0 °F 92% 29.74 in 10.0 mi SE 8.1 mph - N/A   Overcast
10:53 PM 19.9 °F 8.6 °F 17.1 °F 89% 29.75 in 10.0 mi East 10.4 mph - N/A   Overcast
11:53 PM 21.0 °F 11.4 °F 19.0 °F 92% 29.75 in 10.0 mi ESE 8.1 mph - N/A   Overcast